Probability
3 3 3 5 5 3 2 1 1 0 0 0 0 0 0 0 0 0 0 0 0 0 0 0 0 0 0 0 0 0 0 0 0 1 2 2 1 0
2 2 3 5 5 3 3 3 1 0 0 0 0 0 0 0 0 0 0 0 0 0 0 0 0 0 0 0 0 0 0 0 0 0 1 1 0 0
1 1 3 4 4 2 2 2 1 1 0 0 0 1 1 1 1 1 0 0 0 0 0 0 0 0 0 0 0 0 0 0 0 0 0 0 0 0
2 2 1 1 1 1 1 1 1 1 1 0 1 2 2 2 3 2 1 1 1 0 0 0 0 0 0 0 0 0 0 0 0 0 0 0 0 0
3 3 1 0 0 0 0 0 1 1 1 1 1 2 2 3 4 3 2 3 2 1 0 0 0 0 0 0 0 0 0 0 0 0 0 0 0 0
4 3 2 0 0 0 0 0 1 2 1 1 0 1 2 3 4 5 5 5 3 1 1 1 1 1 0 0 0 0 0 0 0 0 0 0 0 0
6 4 2 0 0 0 0 0 1 1 1 1 0 1 2 4 6 6 5 5 3 2 2 2 2 1 1 0 0 0 0 0 0 0 0 0 0 0
5 4 2 0 0 0 0 0 0 0 1 1 0 0 1 4 5 5 4 3 2 2 2 2 1 1 1 1 0 0 0 0 0 0 0 0 0 0
3 4 3 1 0 0 1 1 1 1 1 1 0 0 1 2 2 2 3 3 2 2 2 2 1 1 0 0 0 0 0 0 0 0 0 0 0 0
4 5 5 3 1 0 1 2 2 2 1 0 0 0 0 0 0 1 2 2 2 2 2 3 3 2 1 0 0 0 0 0 0 0 0 0 0 0
8 7 5 3 1 0 1 2 3 2 1 0 0 0 0 0 0 1 2 2 1 1 3 3 4 3 1 0 0 0 0 0 0 0 0 0 0 0
11 10 6 2 0 0 1 2 1 1 0 0 0 0 0 0 0 1 2 2 1 1 2 3 3 2 1 1 1 1 1 0 0 0 0 0 0 0
12 11 7 2 0 0 1 1 1 0 0 0 0 0 0 0 0 1 2 2 1 1 1 1 1 2 2 1 2 3 2 1 1 0 0 0 0 0
9 8 5 2 0 0 0 0 0 0 0 0 0 0 0 0 2 3 4 3 3 2 1 1 1 1 2 1 1 3 3 2 2 2 2 1 0 1
5 4 1 0 0 0 0 0 0 0 0 0 0 0 0 2 4 6 5 4 3 2 2 2 2 2 1 0 0 1 1 1 2 2 2 1 1 1
1 1 0 0 0 0 0 0 0 0 0 1 1 1 1 3 6 5 3 2 2 2 3 3 3 3 2 1 0 0 0 0 1 1 1 1 0 1
1 1 2 2 2 1 1 1 1 1 2 2 2 1 1 3 4 4 3 2 1 2 3 4 4 3 2 1 0 0 0 0 0 1 1 1 1 1
2 3 5 5 5 4 4 3 4 4 4 3 2 1 2 2 2 3 4 4 2 1 2 4 4 2 1 0 0 0 0 0 0 1 2 2 2 2
2 5 7 8 7 6 6 6 6 6 5 4 3 2 3 3 2 3 5 5 2 0 1 2 3 1 0 0 0 0 0 0 0 0 1 2 1 1
1 3 6 6 6 6 7 7 8 7 6 5 4 3 3 3 2 2 3 3 2 1 1 3 3 1 0 0 0 0 0 0 0 0 0 0 0 0
1 2 3 3 3 4 5 6 6 6 5 4 3 3 3 3 3 3 3 3 2 2 2 3 3 1 0 0 0 0 0 0 0 1 0 0 0 0
2 2 2 2 1 1 3 3 3 3 4 3 3 3 3 3 3 3 3 3 2 1 1 2 2 1 0 0 0 0 0 0 0 0 0 0 0 0
2 3 3 2 1 0 1 1 1 2 3 3 3 3 3 3 3 3 3 3 2 1 0 1 1 1 0 0 0 0 0 0 0 0 0 0 0 0
Wind_Speed
5 6 5 3 3 3 3 3 3 3 2 4 3 2 3 2 4 5 4 7 6 5 5 5 5 6 6 7 7 7 7 7 8 8 8 9 9 10
3 3 4 4 3 3 3 3 3 4 3 1 2 2 1 2 5 4 3 8 8 7 6 6 6 6 7 7 8 8 8 8 9 9 9 9 9 10
5 5 5 4 3 3 3 3 3 3 4 2 2 2 2 4 2 3 4 6 6 11 8 7 7 7 8 8 8 9 9 9 9 9 9 10 10 11
6 5 6 4 4 4 3 4 3 3 5 3 2 3 4 4 3 5 5 5 4 8 10 8 8 8 8 8 9 9 9 10 10 10 10 10 11 11
6 6 6 5 5 4 4 4 4 4 4 4 4 2 3 3 4 6 6 4 7 5 10 11 10 9 9 9 10 10 10 10 10 10 10 10 11 11
6 6 6 6 6 6 5 5 4 4 4 5 4 3 4 3 4 5 5 4 5 5 3 4 8 12 12 11 11 10 10 10 10 10 10 10 10 10
7 7 7 5 3 4 4 4 5 5 5 5 5 4 4 3 4 4 4 4 4 5 5 5 5 6 8 12 13 10 9 8 8 9 9 9 9 10
7 7 7 8 7 7 6 5 5 6 6 5 5 4 4 5 4 5 5 5 4 2 5 6 6 6 5 6 5 7 7 7 7 8 8 9 9 10
7 7 7 6 8 8 9 10 9 8 7 7 8 6 5 4 5 6 5 6 6 5 5 7 6 6 6 2 8 7 7 7 8 8 8 9 9 10
8 8 8 7 7 7 7 8 8 8 9 9 7 7 6 4 5 7 7 7 8 7 6 7 6 6 6 4 7 9 9 8 8 9 9 9 10 11
8 8 8 8 5 5 8 8 7 6 5 5 4 4 4 4 5 6 6 7 7 6 4 6 7 7 7 7 5 11 11 10 10 10 10 11 11 11
7 7 6 6 5 7 8 7 7 6 5 5 6 7 8 7 8 8 8 7 7 7 2 4 7 7 8 6 5 5 7 10 12 13 13 12 11 9
6 6 5 8 7 7 7 6 5 5 6 6 6 7 7 6 7 7 7 7 8 7 4 4 7 7 8 8 7 6 6 6 7 9 12 13 12 11
5 4 3 9 8 7 6 5 4 5 7 6 6 6 6 5 5 5 6 7 7 8 8 7 7 7 9 10 9 7 7 7 8 8 8 7 10 13
3 1 2 6 7 7 7 6 6 6 6 6 6 5 5 4 4 4 6 6 9 9 8 7 8 8 9 10 10 9 9 8 7 7 7 8 8 7
5 4 4 4 4 3 4 6 5 5 5 5 5 5 5 4 5 5 6 6 7 7 7 8 8 9 10 10 10 10 9 8 7 7 7 8 8 8
5 5 5 5 5 4 4 4 4 4 5 5 5 5 5 5 5 5 5 6 7 7 6 5 7 8 10 10 10 9 9 9 8 7 7 10 9 8
3 3 3 3 4 4 4 4 4 3 4 4 4 5 5 5 5 5 5 6 6 7 7 6 5 6 7 8 8 9 9 9 8 7 9 10 10 8
3 2 2 2 2 2 2 2 2 2 2 4 4 4 5 5 5 5 5 6 6 7 7 6 6 7 9 9 6 6 8 9 9 8 8 9 10 8
1 1 1 0 1 1 1 2 2 2 2 3 4 4 4 5 5 6 6 6 7 8 8 7 6 6 8 10 9 8 7 8 8 9 9 9 9 8
1 1 1 1 1 1 1 2 2 2 3 3 3 4 5 5 5 6 7 6 7 8 8 7 5 6 8 7 9 8 6 5 7 8 10 10 10 10
1 1 1 2 2 2 2 2 3 3 3 3 4 4 4 5 6 7 7 7 7 7 8 7 6 6 7 8 9 9 8 7 7 9 11 11 10 10
3 3 3 2 2 2 2 3 4 3 3 4 4 5 5 6 6 7 7 7 7 8 8 8 7 6 7 8 8 9 11 10 8 7 7 6 8 11
Wind_Direction
213 206 229 218 232 250 257 269 277 266 211 180 213 178 212 201 154 218 205 166 195 217 231 239 242 239 239 242 243 246 250 250 249 250 251 253 256 258
224 229 238 230 220 234 245 250 260 274 281 194 193 187 242 237 170 231 229 167 199 213 226 236 242 243 243 245 247 247 247 246 247 248 249 250 252 255
209 208 218 241 235 226 228 237 243 254 262 248 195 155 206 266 204 239 232 231 204 196 211 228 239 243 243 245 247 246 245 246 248 249 250 250 252 255
207 209 214 209 219 250 248 246 244 258 262 268 240 192 203 229 236 257 254 248 261 176 196 218 232 238 241 244 247 247 247 247 248 250 251 252 253 256
208 211 214 214 219 223 239 242 236 228 242 252 241 219 227 228 239 245 252 261 269 200 196 209 219 229 237 242 245 246 248 249 250 252 254 255 256 259
213 217 216 216 217 220 224 235 248 251 235 250 248 225 225 215 246 254 252 233 263 273 257 232 213 217 229 234 237 240 245 248 251 252 254 255 255 256
213 218 217 218 237 246 257 237 233 244 238 238 243 240 234 233 250 264 270 270 251 259 271 262 237 237 223 221 223 228 236 244 248 250 251 253 256 257
216 216 212 205 206 218 249 269 278 259 263 265 254 253 257 256 264 273 279 279 276 249 273 274 269 269 261 253 170 186 220 236 244 248 251 253 256 257
218 219 227 204 202 217 211 219 234 246 260 271 273 274 269 264 270 269 273 284 292 300 282 279 274 271 269 243 155 189 216 232 241 248 252 254 257 260
221 220 227 228 218 226 233 227 228 218 218 230 255 266 276 287 268 269 276 266 264 258 258 273 280 280 282 271 180 199 215 229 239 247 252 254 258 262
224 223 224 225 196 206 238 242 242 235 214 224 259 279 312 300 282 269 260 262 266 261 233 263 280 283 279 269 227 197 214 225 235 244 249 251 256 263
217 220 217 227 191 193 230 238 239 244 253 218 219 231 240 233 226 246 260 264 273 274 253 266 280 287 284 273 267 239 235 229 230 237 241 244 248 262
224 219 199 177 191 198 225 238 242 261 258 251 243 237 232 232 225 227 244 263 274 276 285 272 282 284 280 285 284 276 274 275 262 251 237 234 237 244
239 231 180 160 179 196 214 229 237 249 253 253 252 250 248 245 241 244 245 257 267 274 288 288 281 285 286 284 284 283 279 278 277 278 278 252 239 237
240 146 125 155 175 193 210 222 227 237 248 253 256 259 261 263 263 249 246 246 254 257 258 257 266 275 278 281 287 289 290 286 282 284 284 281 281 274
219 188 177 183 208 237 204 206 226 246 256 258 261 263 264 258 255 262 262 259 259 258 244 245 253 265 270 276 281 284 284 284 288 287 288 284 279 276
194 202 207 201 203 211 220 222 222 223 234 253 266 272 271 267 265 267 270 273 272 277 275 255 247 251 261 269 274 277 282 285 288 294 288 284 281 282
192 207 208 215 220 219 218 215 219 234 247 250 256 264 270 272 271 269 268 270 276 280 282 284 279 272 267 257 249 274 282 287 291 291 285 284 284 286
187 215 221 218 230 243 247 246 246 247 265 269 270 272 276 278 279 278 276 277 280 284 284 284 280 278 281 282 272 250 283 289 288 286 285 285 287 290
212 219 217 258 282 275 270 267 270 264 255 267 275 281 282 282 283 283 281 282 284 283 283 282 280 283 286 291 294 286 260 275 288 292 294 291 286 281
92 63 48 33 325 307 300 291 290 290 295 284 279 284 284 281 279 281 283 282 276 279 282 284 292 282 280 281 279 280 284 264 270 280 290 290 289 288
56 64 52 27 17 355 334 318 298 290 289 284 286 283 280 279 278 279 283 284 281 283 289 290 291 281 277 276 282 286 288 287 272 256 258 266 283 291
37 34 34 29 13 356 342 325 316 314 311 305 299 291 286 282 280 281 282 281 284 286 288 289 290 284 281 282 285 286 288 288 287 284 277 261 253 258